sat.trackr.live / text

‹ back to catalog

STARLINK-32624

NORAD 61926 · 2024-207Q

PAYLOAD ACTIVE UNKNOWN

§ Identity

Operator
Country
US
Launch date
2024-11-11
Launch site
AFETR
Launch vehicle
Mass (kg)
RCS (m²)

Purposes: comms

External: N2YO · Heavens-Above · Gunter

§ Orbital elements

Epoch: 2026-09-21T22:52:17.875488Z

Period
94.27 min
Inclination
42.9994°
Eccentricity
0.0000645
Mean motion
15.27591945 rev/d
Perigee alt
482.6 km
Apogee alt
483.5 km
Semi-major
6,861.2 km
B*
5.2722e-4
RAAN
252.8633°
Arg perigee
252.6540°
Mean anomaly
107.4241°
Rev number
10,474

§ Raw data

STARLINK-326241 61926U 24207Q   26264.95298467  .00014279  00000+0  52722-3 0  99922 61926  42.9994 252.8633 0000645 252.6540 107.4241 15.27591945104744

JSON: /api/v1/satellites/61926 · /tle

For live sub-satellite position, see the globe view (requires WebGL).

§ Visibility from observer

Set your observer location to see the next 7 days of passes ≥ 10°. The values pass through the URL so the page stays shareable.

No JS? Fill the form by hand. The geolocation button needs JavaScript.